[[{"header":{"parameterUnit":"m.s-1","parameterCategory":2,"la1":30.2992,"la2":30.254,"lo1":-89.0895,"lo2":-89.0443,"dy":0.0025,"dx":0.0025,"nx":19,"ny":19,"refTime":"2026-05-09T03:00:00:Z","depth":"0","parameterNumber":2,"parameterNumberName":"U-component_of_CURRENTS"},"data":[0,0,0,-0.1392,-0.1391,-0.1335,-0.1335,-0.141,-0.1411,0,0,0,0,0,0,0,0,0,0,0,-0.1436,-0.1436,-0.1392,-0.139,-0.1335,-0.1335,-0.141,-0.1411,0,0,0,0,0,0,0,0,0,0,0,-0.1436,-0.1436,-0.1436,-0.139,-0.1335,-0.1335,-0.141,-0.1419,0,0,0,0,0,0,0,0,0,0,-0.1456,-0.1432,-0.1436,-0.1436,-0.139,-0.1335,-0.1335,-0.1418,-0.1418,-0.1472,0,-0.1469,0,-0.1428,-0.1418,-0.1419,0,0,0,-0.1405,-0.1431,-0.1449,-0.1436,-0.1389,-0.1335,-0.1364,-0.1417,-0.1418,-0.1474,-0.1469,-0.147,-0.1429,-0.1419,-0.1419,-0.1516,-0.1516,0,0,-0.1408,-0.1397,-0.1448,-0.1449,-0.1385,-0.1366,-0.1362,-0.1416,-0.1406,-0.1469,-0.147,-0.1431,-0.142,-0.142,-0.1516,-0.1516,0,0,0,-0.1407,-0.1399,-0.1412,-0.1448,-0.1419,-0.1364,-0.136,-0.1403,-0.1417,-0.1471,-0.1432,-0.142,-0.1421,-0.1516,-0.1516,-0.1404,0,0,0,-0.1409,-0.1398,-0.1414,-0.1403,-0.1417,-0.1378,-0.1346,-0.1414,-0.1416,-0.1431,-0.142,-0.1422,-0.1515,-0.1516,-0.1407,-0.142,0,0,0,-0.1437,-0.1399,-0.1403,-0.1403,-0.1373,-0.1376,-0.139,-0.1413,-0.1393,-0.1419,-0.1423,-0.1515,-0.1516,-0.1409,-0.1422,-0.1386,0,0,0,-0.1415,-0.1363,-0.1403,-0.1352,-0.1373,-0.1349,-0.1389,-0.1378,-0.1396,-0.1421,-0.1515,-0.1516,-0.1409,-0.1424,-0.1387,-0.1225,-0.1204,0,0,-0.1329,-0.1352,-0.1329,-0.1363,-0.1329,-0.1357,-0.1321,-0.1368,-0.1431,-0.151,-0.1511,-0.1406,-0.1422,-0.1386,-0.1263,-0.124,0,0,0,-0.129,-0.1281,-0.1279,-0.1276,-0.1287,-0.1305,-0.1323,-0.1347,-0.1401,-0.144,-0.1451,-0.1468,-0.1446,-0.1353,-0.1336,-0.1339,-0.1519,-0.1519,-0.1519,-0.1162,-0.1203,-0.1175,-0.1227,-0.1235,-0.1267,-0.1282,-0.1337,-0.1371,-0.1389,-0.1406,-0.1355,-0.1254,-0.124,-0.1245,-0.141,-0.1409,-0.1409,-0.1409,-0.1065,-0.1053,-0.1136,-0.1119,-0.119,-0.1189,-0.1264,-0.1283,-0.1314,-0.1362,-0.1343,-0.128,-0.1213,-0.1227,-0.1402,-0.1403,-0.1404,-0.1405,-0.1405,-0.098,-0.0977,-0.1,-0.1028,-0.1071,-0.1142,-0.1158,-0.1216,-0.1268,-0.1255,-0.1167,-0.1167,-0.1154,-0.1225,-0.1225,-0.1225,-0.1225,-0.1225,-0.1225,-0.087,-0.0899,-0.0882,-0.0931,-0.0952,-0.1004,-0.1087,-0.1086,-0.1078,-0.1096,-0.1093,-0.1141,-0.1301,-0.128,-0.1223,-0.1223,-0.1224,-0.1224,-0.1224,-0.0737,-0.0766,-0.0743,-0.0751,-0.0815,-0.0791,-0.0879,-0.0829,-0.0855,-0.0811,-0.089,-0.0996,-0.1031,-0.1044,-0.102,-0.0899,-0.0899,-0.0899,-0.0899,-0.0646,-0.0661,-0.0643,-0.0654,-0.0677,-0.0706,-0.0559,-0.053,-0.0602,-0.0653,-0.0762,-0.074,-0.0753,-0.0775,-0.0794,-0.0768,-0.0586,-0.0586,-0.0586,-0.0571,-0.0588,-0.0553,-0.0598,-0.0629,-0.0581,-0.0382,-0.0217,-0.0381,-0.0583,-0.0801,-0.0814,-0.08,-0.0821,-0.0872,-0.0899,-0.0864,0,0]},{"header":{"parameterUnit":"m.s-1","parameterCategory":2,"la1":30.2992,"la2":30.254,"lo1":-89.0895,"lo2":-89.0443,"dy":0.0025,"dx":0.0025,"nx":19,"ny":19,"refTime":"2026-05-09T03:00:00:Z","depth":"0","parameterNumber":3,"parameterNumberName":"V-component_of_CURRENTS"},"data":[0,0,0,-0.0016,-0.0015,0.0051,0.0051,0.0242,0.0244,0,0,0,0,0,0,0,0,0,0,0,-0.0031,-0.0031,-0.0016,-0.0015,0.0051,0.0052,0.0242,0.0244,0,0,0,0,0,0,0,0,0,0,0,-0.0031,-0.0031,-0.003,-0.0015,0.0051,0.0052,0.0241,0.0166,0,0,0,0,0,0,0,0,0,0,0.0089,0.0023,-0.0031,-0.003,-0.0014,0.0051,0.0052,0.0162,0.0171,0.0241,0,0.0254,0,0.0252,0.0259,0.026,0,0,0,-0.001,0.0014,0.0067,-0.003,-0.0014,0.0051,0.0023,0.0166,0.0177,0.0255,0.0257,0.0263,0.0256,0.026,0.0262,0.0412,0.0412,0,0,-0.0014,-0.0049,0.0059,0.0074,0.0011,0.0021,0.0025,0.0172,0.0168,0.0257,0.0267,0.0259,0.0262,0.0264,0.0412,0.0412,0,0,0,-0.0027,-0.0052,-0.0006,0.0067,0.007,0.0022,0.0027,0.0161,0.0186,0.0269,0.0261,0.0263,0.0266,0.0412,0.0412,0.0283,0,0,0,-0.0029,-0.0059,-0.0007,-0.0032,0.0066,0.0092,0.0013,0.0176,0.0192,0.026,0.0263,0.0268,0.0412,0.0412,0.0286,0.024,0,0,0,-0.0035,-0.0061,-0.0044,-0.0033,-0.0004,0.009,0.0121,0.0179,0.0188,0.026,0.0269,0.0412,0.0412,0.029,0.0245,0.0258,0,0,0,-0.0086,-0.0094,-0.0045,-0.005,-0.0004,0.0048,0.012,0.0162,0.0215,0.0264,0.0412,0.0412,0.0291,0.0249,0.0261,0.0402,0.0401,0,0,-0.0127,-0.01,-0.0098,-0.0053,-0.0028,0.0039,0.0056,0.0156,0.0243,0.0373,0.0376,0.0285,0.0246,0.0259,0.0401,0.04,0,0,0,-0.0131,-0.0126,-0.011,-0.0081,-0.0021,0.0006,0.01,0.0139,0.0224,0.0275,0.0322,0.0302,0.0314,0.0406,0.0405,0.051,0.0412,0.0412,0.0412,-0.0222,-0.0173,-0.0175,-0.0111,-0.0077,-0.0003,0.0017,0.0099,0.0195,0.0205,0.0222,0.018,0.0276,0.0278,0.0382,0.0249,0.0249,0.0248,0.0248,-0.0272,-0.0265,-0.0218,-0.0202,-0.0145,-0.0112,-0.0034,0.0007,0.0076,0.014,0.0158,0.0297,0.027,0.0382,0.024,0.0242,0.0243,0.0243,0.0244,-0.0316,-0.0312,-0.0296,-0.0274,-0.0253,-0.0183,-0.013,-0.0085,-0.0018,-0.0023,0.0174,0.0178,0.026,0.002,0.002,0.002,0.002,0.002,0.002,-0.0369,-0.0356,-0.0366,-0.0345,-0.0332,-0.0282,-0.0178,-0.011,0.0007,0.007,0.0073,0.0279,0.0113,0.0102,0.0017,0.0017,0.0018,0.0018,0.0018,-0.0405,-0.0407,-0.0423,-0.0421,-0.037,-0.0223,-0.0152,0.0091,0.012,0.0207,0.0329,0.0144,0.0216,0.0221,0.0216,0.0165,0.0165,0.0165,0.0165,-0.0435,-0.0437,-0.0447,-0.0433,-0.0365,-0.0193,0.0142,0.0361,0.0491,0.0541,0.0443,0.0519,0.0509,0.0602,0.0598,0.0602,0.0651,0.0651,0.0652,-0.0452,-0.0457,-0.0455,-0.043,-0.0341,-0.0068,0.0347,0.0623,0.072,0.0675,0.0551,0.0531,0.0643,0.0618,0.0768,0.0754,0.0763,0,0]}],[{"header":{"parameterUnit":"m.s-1","parameterCategory":2,"la1":30.2992,"la2":30.254,"lo1":-89.0895,"lo2":-89.0443,"dy":0.0025,"dx":0.0025,"nx":19,"ny":19,"refTime":"2026-05-09T03:00:00:Z","depth":"2","parameterNumber":2,"parameterNumberName":"U-component_of_CURRENTS"},"data":[0,0,0,-0.1078,-0.1076,-0.1018,-0.1018,-0.1012,-0.1012,0,0,0,0,0,0,0,0,0,0,0,-0.1054,-0.1051,-0.1078,-0.1076,-0.1018,-0.1018,-0.1012,-0.1012,0,0,0,0,0,0,0,0,0,0,0,-0.1055,-0.1052,-0.1049,-0.1075,-0.1018,-0.1018,-0.1012,-0.1045,0,0,0,0,0,0,0,0,0,0,-0.1095,-0.1082,-0.1053,-0.1049,-0.1075,-0.1018,-0.1018,-0.1046,-0.1043,-0.105,0,-0.098,0,-0.1004,-0.1011,-0.1011,0,0,0,-0.1101,-0.1084,-0.1041,-0.1049,-0.1074,-0.1018,-0.1051,-0.1044,-0.1041,-0.1046,-0.098,-0.0981,-0.1004,-0.1011,-0.1011,-0.0906,-0.0905,0,0,-0.1104,-0.1087,-0.1042,-0.1036,-0.0981,-0.1053,-0.1049,-0.1042,-0.1022,-0.0981,-0.0982,-0.1004,-0.1011,-0.1011,-0.0907,-0.0906,0,0,0,-0.1096,-0.1089,-0.1047,-0.1036,-0.1024,-0.1051,-0.1046,-0.1023,-0.0997,-0.0982,-0.1004,-0.1011,-0.1011,-0.0908,-0.0907,-0.0955,0,0,0,-0.11,-0.1083,-0.1047,-0.1044,-0.1022,-0.1022,-0.1028,-0.0997,-0.0998,-0.1004,-0.1011,-0.101,-0.091,-0.0908,-0.0956,-0.1021,0,0,0,-0.107,-0.1084,-0.1045,-0.1041,-0.1008,-0.1022,-0.1,-0.0998,-0.1012,-0.1011,-0.101,-0.091,-0.0908,-0.0957,-0.102,-0.0998,0,0,0,-0.1104,-0.1025,-0.1043,-0.0977,-0.1007,-0.0963,-0.1,-0.1019,-0.102,-0.1011,-0.0909,-0.0907,-0.0958,-0.102,-0.0998,-0.085,-0.0838,0,0,-0.1037,-0.1017,-0.0985,-0.1,-0.0965,-0.0977,-0.0949,-0.099,-0.0978,-0.0924,-0.0921,-0.0956,-0.102,-0.0998,-0.071,-0.0703,0,0,0,-0.0989,-0.0965,-0.0948,-0.0935,-0.0909,-0.0929,-0.0942,-0.093,-0.0923,-0.0958,-0.0892,-0.0931,-0.0916,-0.0824,-0.0817,-0.0895,-0.0896,-0.0896,-0.0896,-0.0907,-0.0929,-0.0901,-0.0913,-0.0897,-0.0907,-0.0916,-0.0896,-0.0876,-0.087,-0.0922,-0.0878,-0.0776,-0.077,-0.0841,-0.0842,-0.0842,-0.0842,-0.0842,-0.085,-0.0837,-0.0899,-0.0884,-0.0908,-0.0895,-0.0903,-0.0913,-0.0895,-0.088,-0.0861,-0.0819,-0.0766,-0.0844,-0.0844,-0.0844,-0.0843,-0.0843,-0.0843,-0.0797,-0.0797,-0.0816,-0.0843,-0.0884,-0.0907,-0.0921,-0.0948,-0.0955,-0.0975,-0.0823,-0.082,-0.0953,-0.0939,-0.094,-0.094,-0.094,-0.094,-0.094,-0.0717,-0.0747,-0.0741,-0.0793,-0.0813,-0.0863,-0.0922,-0.0916,-0.0888,-0.0875,-0.0872,-0.0911,-0.0908,-0.0955,-0.0942,-0.0942,-0.0942,-0.0942,-0.0941,-0.062,-0.064,-0.0633,-0.0643,-0.0701,-0.0635,-0.0755,-0.0708,-0.0738,-0.0691,-0.0785,-0.0788,-0.0762,-0.0763,-0.0804,-0.0754,-0.0754,-0.0754,-0.0754,-0.0542,-0.0558,-0.0541,-0.0549,-0.0564,-0.054,-0.0385,-0.0438,-0.0546,-0.0642,-0.0648,-0.059,-0.0597,-0.0561,-0.0567,-0.0603,-0.0501,-0.0501,-0.0501,-0.0475,-0.0491,-0.0456,-0.0492,-0.0507,-0.0368,-0.0126,-0.0101,-0.034,-0.0501,-0.0702,-0.0718,-0.0642,-0.0651,-0.0602,-0.0609,-0.067,0,0]},{"header":{"parameterUnit":"m.s-1","parameterCategory":2,"la1":30.2992,"la2":30.254,"lo1":-89.0895,"lo2":-89.0443,"dy":0.0025,"dx":0.0025,"nx":19,"ny":19,"refTime":"2026-05-09T03:00:00:Z","depth":"2","parameterNumber":3,"parameterNumberName":"V-component_of_CURRENTS"},"data":[0,0,0,-0.0041,-0.004,0.0007,0.0007,0.0162,0.0164,0,0,0,0,0,0,0,0,0,0,0,-0.0056,-0.0056,-0.0041,-0.004,0.0006,0.0007,0.0162,0.0164,0,0,0,0,0,0,0,0,0,0,0,-0.0056,-0.0056,-0.0056,-0.004,0.0006,0.0007,0.0162,0.0105,0,0,0,0,0,0,0,0,0,0,0.0048,-0.0016,-0.0056,-0.0056,-0.0039,0.0006,0.0007,0.0101,0.0108,0.0167,0,0.0168,0,0.0169,0.0176,0.0176,0,0,0,-0.0032,-0.0023,0.0023,-0.0056,-0.0039,0.0006,-0.0012,0.0104,0.0113,0.0177,0.017,0.0175,0.0172,0.0177,0.0178,0.029,0.029,0,0,-0.0035,-0.0074,0.0016,0.0028,-0.0032,-0.0014,-0.0011,0.0108,0.0098,0.017,0.0178,0.0174,0.0178,0.018,0.029,0.029,0,0,0,-0.0047,-0.0076,-0.0036,0.0022,0.0023,-0.0013,-0.0009,0.0092,0.0114,0.018,0.0176,0.0179,0.0181,0.029,0.029,0.0219,0,0,0,-0.0048,-0.0083,-0.0037,-0.0064,0.0019,0.0036,-0.0029,0.0106,0.0119,0.0176,0.0179,0.0183,0.0291,0.029,0.0221,0.0184,0,0,0,-0.0057,-0.0085,-0.0074,-0.0065,-0.0045,0.0034,0.0061,0.0108,0.0118,0.0177,0.0184,0.0291,0.029,0.0223,0.0188,0.0211,0,0,0,-0.0105,-0.0114,-0.0076,-0.0081,-0.0045,0.0003,0.006,0.0101,0.0146,0.018,0.0291,0.029,0.0224,0.0191,0.0212,0.0324,0.0326,0,0,-0.0139,-0.012,-0.0116,-0.0079,-0.0053,-0.0003,0.0021,0.0107,0.0164,0.026,0.0262,0.022,0.0188,0.0211,0.031,0.0313,0,0,0,-0.0139,-0.0136,-0.0123,-0.0098,-0.0047,-0.0015,0.0062,0.0094,0.0161,0.0188,0.0235,0.0218,0.0234,0.0306,0.0308,0.0289,0.0289,0.0289,0.0289,-0.0222,-0.0173,-0.0174,-0.0112,-0.0082,-0.0009,0.0018,0.0082,0.0146,0.0155,0.0171,0.0152,0.0227,0.023,0.0188,0.0187,0.0187,0.0187,0.0187,-0.0262,-0.0254,-0.0206,-0.0188,-0.0127,-0.0092,-0.001,0.0028,0.0085,0.0117,0.0138,0.024,0.0228,0.0181,0.0182,0.0183,0.0184,0.0184,0.0185,-0.0305,-0.03,-0.0282,-0.0255,-0.0222,-0.0149,-0.0089,-0.0037,0.0023,0.0032,0.0173,0.0176,0.0119,0.0065,0.0065,0.0065,0.0065,0.0065,0.0065,-0.036,-0.0343,-0.0352,-0.0324,-0.0309,-0.0254,-0.0136,-0.0066,0.0051,0.011,0.0112,0.0112,0.0116,0.0114,0.0063,0.0064,0.0064,0.0064,0.0064,-0.0397,-0.0398,-0.0415,-0.0412,-0.0363,-0.0293,-0.0175,0.0065,0.0142,0.0227,0.018,0.0177,0.0222,0.0224,0.0226,0.0207,0.0207,0.0207,0.0207,-0.043,-0.043,-0.0448,-0.0441,-0.039,-0.0301,-0.0134,0.001,0.0185,0.0221,0.022,0.0251,0.0247,0.0295,0.0294,0.0298,0.0298,0.0297,0.0297,-0.0449,-0.0456,-0.0465,-0.0451,-0.0388,-0.0276,-0.0187,-0.013,0.014,0.0291,0.0136,0.0233,0.0279,0.0272,0.0348,0.0345,0.0354,0,0]}],[{"header":{"parameterUnit":"m.s-1","parameterCategory":2,"la1":30.2992,"la2":30.254,"lo1":-89.0895,"lo2":-89.0443,"dy":0.0025,"dx":0.0025,"nx":19,"ny":19,"refTime":"2026-05-09T03:00:00:Z","depth":"4","parameterNumber":2,"parameterNumberName":"U-component_of_CURRENTS"},"data":[0,0,0,-0.0093,-0.0097,-0.0265,-0.0265,-0.0104,-0.0101,0,0,0,0,0,0,0,0,0,0,0,-0.0042,-0.0044,-0.0093,-0.0098,-0.0265,-0.0265,-0.0104,-0.0101,0,0,0,0,0,0,0,0,0,0,0,-0.0042,-0.0044,-0.0046,-0.0099,-0.0265,-0.0265,-0.0105,-0.0068,0,0,0,0,0,0,0,0,0,0,0.005,0.0038,-0.0043,-0.0046,-0.01,-0.0265,-0.0265,-0.007,-0.007,0.0074,0,0.0014,0,-0.0035,-0.0084,-0.0083,0,0,0,-0.0081,0.0036,-0.0011,-0.0046,-0.0101,-0.0265,-0.0185,-0.0073,-0.0072,0.0076,0.0016,0.0019,-0.0032,-0.0082,-0.0081,0.0089,0.0089,0,0,-0.0072,-0.0052,-0.0013,-0.0012,-0.0179,-0.0179,-0.019,-0.0076,-0.0078,0.0016,0.0021,-0.0029,-0.008,-0.0078,0.0089,0.0089,0,0,0,-0.0056,-0.0045,-0.0103,-0.0016,-0.0074,-0.0185,-0.0197,-0.0084,-0.0107,0.0022,-0.0027,-0.0079,-0.0075,0.0089,0.0089,-0.0069,0,0,0,-0.005,-0.0038,-0.01,-0.0086,-0.008,-0.0132,-0.0206,-0.0115,-0.0105,-0.0028,-0.0078,-0.0073,0.0089,0.0089,-0.0064,-0.0101,0,0,0,-0.0029,-0.0034,-0.0068,-0.0085,-0.0167,-0.0137,-0.0155,-0.0117,-0.0132,-0.0082,-0.0072,0.009,0.0089,-0.006,-0.0094,-0.0126,0,0,0,0.002,-0.0064,-0.0068,-0.0149,-0.0166,-0.0218,-0.0158,-0.0164,-0.0129,-0.0077,0.0089,0.0089,-0.0059,-0.009,-0.0122,-0.0057,0,0,0,-0.0057,-0.0072,-0.0113,-0.0122,-0.0202,-0.0191,-0.0233,-0.0163,-0.0077,0.0084,0.0084,-0.0066,-0.0094,-0.0125,-0.0076,0,0,0,0,-0.0116,-0.0152,-0.0171,-0.0223,-0.0244,-0.027,-0.0224,-0.0195,-0.0132,-0.0066,-0.0028,-0.0038,-0.0055,-0.0003,0.0088,0.0088,0.0088,0.0088,0.0088,-0.0178,-0.0196,-0.0264,-0.0291,-0.0306,-0.0303,-0.0307,-0.0244,-0.0155,-0.0161,-0.0142,-0.0232,-0.0183,-0.0125,-0.0126,-0.0126,-0.0127,-0.0127,-0.0128,-0.0279,-0.0321,-0.0328,-0.0405,-0.0403,-0.0418,-0.0369,-0.0347,-0.0309,-0.0241,-0.0251,-0.0141,-0.0142,-0.014,-0.0137,-0.0136,-0.0135,-0.0134,-0.0133,-0.032,-0.0347,-0.0396,-0.0467,-0.0515,-0.0501,-0.0512,-0.0493,-0.042,-0.0439,-0.0341,-0.0308,-0.0323,-0.045,-0.045,-0.045,-0.0451,-0.0451,-0.0451,-0.0344,-0.0394,-0.0432,-0.0519,-0.0545,-0.0586,-0.0606,-0.0577,-0.0539,-0.0472,-0.0472,-0.0339,-0.0328,-0.0337,-0.0456,-0.0455,-0.0455,-0.0454,-0.0454,-0.0374,-0.0377,-0.043,-0.046,-0.0511,-0.0544,-0.0618,-0.0601,-0.0578,-0.0523,-0.0471,-0.0469,-0.039,-0.0377,-0.0385,-0.0524,-0.0523,-0.0523,0,-0.0345,-0.0367,-0.0367,-0.0372,-0.0384,-0.0474,-0.0468,-0.0481,-0.0461,-0.0448,-0.0481,-0.0419,-0.0418,-0.0319,-0.0308,-0.0312,0,0,0,-0.0308,-0.0324,-0.0284,-0.03,-0.0296,-0.0357,-0.045,-0.0437,-0.0514,-0.0494,-0.0513,-0.0516,-0.045,-0.0472,-0.0343,-0.033,-0.0337,0,0]},{"header":{"parameterUnit":"m.s-1","parameterCategory":2,"la1":30.2992,"la2":30.254,"lo1":-89.0895,"lo2":-89.0443,"dy":0.0025,"dx":0.0025,"nx":19,"ny":19,"refTime":"2026-05-09T03:00:00:Z","depth":"4","parameterNumber":3,"parameterNumberName":"V-component_of_CURRENTS"},"data":[0,0,0,-0.0281,-0.0279,-0.02,-0.02,-0.0272,-0.0273,0,0,0,0,0,0,0,0,0,0,0,-0.0268,-0.0267,-0.0281,-0.0279,-0.0201,-0.02,-0.0272,-0.0273,0,0,0,0,0,0,0,0,0,0,0,-0.0269,-0.0267,-0.0266,-0.0279,-0.0201,-0.02,-0.0271,-0.0284,0,0,0,0,0,0,0,0,0,0,-0.0338,-0.0337,-0.0268,-0.0266,-0.0279,-0.0201,-0.02,-0.0283,-0.0283,-0.0362,0,-0.0322,0,-0.033,-0.0284,-0.0284,0,0,0,-0.0263,-0.0335,-0.0295,-0.0265,-0.0278,-0.0201,-0.0231,-0.0281,-0.0283,-0.0365,-0.0323,-0.0326,-0.0331,-0.0285,-0.0285,-0.0303,-0.0302,0,0,-0.0267,-0.0285,-0.0293,-0.0294,-0.0227,-0.0234,-0.0229,-0.028,-0.0286,-0.0324,-0.0328,-0.0332,-0.0286,-0.0287,-0.0304,-0.0303,0,0,0,-0.0291,-0.0288,-0.0242,-0.0292,-0.028,-0.0232,-0.0227,-0.0282,-0.0259,-0.0328,-0.0333,-0.0287,-0.0288,-0.0305,-0.0304,-0.0195,0,0,0,-0.0293,-0.0303,-0.0244,-0.0258,-0.0277,-0.0267,-0.0228,-0.0254,-0.0261,-0.0332,-0.0287,-0.029,-0.0306,-0.0304,-0.02,-0.0191,0,0,0,-0.0277,-0.0304,-0.0278,-0.0258,-0.0233,-0.0265,-0.0245,-0.0254,-0.0267,-0.0284,-0.029,-0.0307,-0.0305,-0.0204,-0.0198,-0.0154,0,0,0,-0.0322,-0.0273,-0.0277,-0.0233,-0.0234,-0.0187,-0.0244,-0.0235,-0.0241,-0.0287,-0.0306,-0.0304,-0.0206,-0.0202,-0.0158,-0.0292,0,0,0,-0.0286,-0.027,-0.0242,-0.0244,-0.0197,-0.0198,-0.0148,-0.0186,-0.0234,-0.0303,-0.0301,-0.0198,-0.0198,-0.0155,-0.0157,0,0,0,0,-0.0248,-0.0229,-0.0213,-0.0188,-0.0158,-0.012,-0.0145,-0.0136,-0.0135,-0.0231,-0.0182,-0.0187,-0.0162,-0.0251,-0.0293,-0.0293,-0.0293,-0.0294,-0.0294,-0.0237,-0.0213,-0.0183,-0.0147,-0.0113,-0.0075,-0.0025,-0.002,-0.0087,-0.0046,-0.0083,0.0037,-0.0049,-0.0049,-0.0049,-0.0048,-0.0048,-0.0047,-0.0047,-0.0216,-0.0206,-0.0171,-0.0142,-0.0087,-0.0048,0.0044,0.0059,0.0106,0.0045,0.0065,-0.0113,-0.0036,-0.0038,-0.004,-0.0041,-0.0042,-0.0043,-0.0043,-0.024,-0.0232,-0.0217,-0.018,-0.0121,-0.0051,0.0029,0.0102,0.0161,0.0209,0.0076,0.0097,0.007,0.0207,0.0207,0.0208,0.0208,0.0208,0.0208,-0.0281,-0.0259,-0.0271,-0.0227,-0.0211,-0.0147,-0.0002,0.0078,0.0175,0.0158,0.021,0.0121,0.0113,0.0083,0.0213,0.0212,0.0211,0.0211,0.0211,-0.031,-0.0318,-0.0335,-0.0337,-0.0305,-0.0261,-0.0114,0.0044,0.0121,0.018,0.014,0.0142,0.0076,0.0068,0.0034,0.0154,0.0153,0.0151,0,-0.0344,-0.0345,-0.0392,-0.0416,-0.0413,-0.0326,-0.0235,-0.0101,0.0038,-0.0016,0.012,0.0065,0.0069,-0.0018,-0.0026,-0.0073,0,0,0,-0.0366,-0.0381,-0.0429,-0.0463,-0.0471,-0.0346,-0.0216,-0.0181,-0.0008,0.0097,0.0119,0.0128,0.0194,0.0226,0.0128,0.0118,0.0065,0,0]}]]